Weather History for KPMV - October, 2012

Change the Weather History Date:

Tuesday, October 16, 2012

  Actual Average (KOFF) Record (KOFF)
Temperature  
Mean Temperature 68 °F -  
Max Temperature 79 °F 63 °F 79 °F (2012)
Min Temperature 56 °F 42 °F 32 °F (2001)
Cooling Degree Days 2    
Growing Degree Days 18 (Base 50)    
Moisture  
Dew Point 44 °F    
Average Humidity 41    
Maximum Humidity 75    
Minimum Humidity 24    
Precipitation  
Precipitation 0.00 in - - ()
Sea Level Pressure  
Sea Level Pressure 29.50 in    
Wind  
Wind Speed 10 mph (WSW)    
Max Wind Speed 16 mph    
Max Gust Speed 20 mph    
Visibility 10 miles    
Events      
Averages and records for this station are not official NWS values.
T = Trace of Precipitation, MM = Missing Value Source: NWS Daily Summary

Daily Weather History Graph

Daily Weather History Graph

Search for Another Location

Airport or City:

Trip Planner

Search our weather history database for the weather conditions in past years. The results will help you decide how hot, cold, wet, or windy it might be!

Date:

Astronomy

Oct. 16, 2012 Rise Set
Actual Time 7:36 AM CDT 6:40 PM CDT
Civil Twilight 7:08 AM CDT 7:08 PM CDT
Nautical Twilight 6:37 AM CDT 7:40 PM CDT
Astronomical Twilight 6:05 AM CDT 8:12 PM CDT
Moon 9:01 AM CDT (10/16) 7:25 PM CDT (10/16)
Length of Visible Light 11h 59m
Length of Day
11h 04m
New Moon, 2% of the Moon is Illuminated
Oct 16
New Moon
Oct 21
First Quarter
Oct 29
Full
Nov 6
Last Quarter
Nov 13
New

Hourly Weather History & Observations

Time (CDT) Temp. Dew Point Humidity Pressure Visibility Wind Dir Wind Speed Gust Speed Precip Events Conditions
8:55 AM 56.1 °F 48.4 °F 75% 29.57 in - SSW 10.4 mph - N/A   Unknown
9:15 AM 57.2 °F 48.4 °F 72% 29.58 in 10.0 mi SSW 10.4 mph - N/A   Clear
9:35 AM 59.4 °F 48.6 °F 67% 29.58 in 10.0 mi SW 10.4 mph - N/A   Clear
9:55 AM 60.8 °F 48.6 °F 64% 29.59 in 10.0 mi WSW 12.7 mph 18.4 mph N/A   Clear
10:15 AM 62.4 °F 48.6 °F 60% 29.58 in 10.0 mi West 11.5 mph 17.3 mph N/A   Clear
10:35 AM 63.5 °F 47.5 °F 56% 29.58 in 10.0 mi West 13.8 mph - N/A   Clear
10:55 AM 64.4 °F 46.9 °F 53% 29.58 in 10.0 mi West 13.8 mph 19.6 mph N/A   Clear
11:15 AM 65.5 °F 45.3 °F 48% 29.57 in 10.0 mi West 10.4 mph - N/A   Clear
11:35 AM 67.3 °F 45.0 °F 45% 29.57 in 10.0 mi WNW 11.5 mph - N/A   Clear
11:55 AM 68.0 °F 45.0 °F 43% 29.57 in 10.0 mi West 12.7 mph - N/A   Clear
12:15 PM 69.1 °F 44.2 °F 41% 29.58 in 10.0 mi WNW 10.4 mph - N/A   Clear
12:35 PM 70.7 °F 43.9 °F 38% 29.57 in 10.0 mi WNW 10.4 mph 18.4 mph N/A   Clear
12:55 PM 73.2 °F 42.8 °F 33% 29.56 in 10.0 mi NW 12.7 mph - N/A   Clear
1:15 PM 73.9 °F 42.6 °F 32% 29.55 in 10.0 mi NW 16.1 mph 19.6 mph N/A   Clear
1:35 PM 74.8 °F 42.8 °F 32% 29.54 in 10.0 mi NW 10.4 mph 16.1 mph N/A   Clear
1:55 PM 75.9 °F 42.8 °F 31% 29.53 in 10.0 mi NNW 9.2 mph - N/A   Clear
2:15 PM 76.8 °F 42.4 °F 29% 29.52 in 10.0 mi NW 9.2 mph - N/A   Clear
2:35 PM 77.0 °F 41.7 °F 28% 29.51 in 10.0 mi NNW 8.1 mph - N/A   Clear
2:55 PM 78.1 °F 41.9 °F 27% 29.50 in 10.0 mi NW 6.9 mph - N/A   Clear
3:15 PM 78.6 °F 41.7 °F 27% 29.50 in 10.0 mi NW 5.8 mph - N/A   Clear
3:35 PM 79.3 °F 41.7 °F 26% 29.50 in 10.0 mi WNW 8.1 mph - N/A   Clear
3:55 PM 79.7 °F 41.4 °F 26% 29.49 in 10.0 mi WSW 4.6 mph - N/A   Clear
4:15 PM 79.9 °F 40.6 °F 25% 29.48 in 10.0 mi SW 8.1 mph - N/A   Clear
4:35 PM 79.7 °F 40.3 °F 24% 29.48 in 10.0 mi West 3.5 mph - N/A   Clear
4:55 PM 79.3 °F 39.9 °F 24% 29.48 in 10.0 mi WSW 11.5 mph - N/A   Clear
5:15 PM 79.0 °F 39.9 °F 25% 29.47 in 10.0 mi WSW 6.9 mph - N/A   Clear
5:35 PM 78.1 °F 40.5 °F 26% 29.48 in 10.0 mi SW 8.1 mph - N/A   Clear
5:55 PM 76.6 °F 41.0 °F 28% 29.47 in 10.0 mi WSW 5.8 mph - N/A   Clear
6:15 PM 74.5 °F 42.1 °F 31% 29.47 in 10.0 mi SW 3.5 mph - N/A   Clear
6:35 PM 71.4 °F 42.1 °F 35% 29.47 in 10.0 mi SW 4.6 mph - N/A   Clear
6:55 PM 70.2 °F 42.1 °F 36% 29.47 in 10.0 mi SSW 4.6 mph - N/A   Clear
7:15 PM 69.4 °F 41.9 °F 37% 29.47 in 10.0 mi SSW 4.6 mph - N/A   Clear
7:35 PM 69.1 °F 41.7 °F 37% 29.47 in 10.0 mi SSW 5.8 mph - N/A   Clear
7:55 PM 68.5 °F 41.9 °F 38% 29.47 in 10.0 mi SSW 5.8 mph - N/A   Clear
8:15 PM 67.8 °F 42.3 °F 39% 29.47 in 10.0 mi SSW 5.8 mph - N/A   Clear
8:35 PM 66.7 °F 43.7 °F 43% 29.47 in 10.0 mi South 5.8 mph - N/A   Clear
8:55 PM 66.6 °F 43.2 °F 43% 29.46 in 10.0 mi SSW 8.1 mph - N/A   Clear
9:15 PM 67.1 °F 43.7 °F 43% 29.46 in 10.0 mi South 9.2 mph - N/A   Clear
9:35 PM 66.0 °F 44.1 °F 45% 29.46 in 10.0 mi South 8.1 mph - N/A   Clear
9:55 PM 66.0 °F 44.4 °F 46% 29.46 in 10.0 mi South 10.4 mph - N/A   Clear
10:15 PM 63.5 °F 45.5 °F 52% 29.45 in 10.0 mi South 9.2 mph - N/A   Clear
10:35 PM 63.7 °F 46.0 °F 53% 29.44 in 10.0 mi South 10.4 mph - N/A   Clear
10:55 PM 64.0 °F 46.4 °F 53% 29.44 in 10.0 mi South 10.4 mph - N/A   Clear
11:15 PM 63.5 °F 46.8 °F 54% 29.43 in 10.0 mi South 9.2 mph - N/A   Clear
11:35 PM 63.0 °F 47.3 °F 57% 29.43 in 10.0 mi South 8.1 mph - N/A   Clear
11:55 PM 63.3 °F 47.5 °F 56% 29.42 in 10.0 mi South 10.4 mph - N/A   Clear